Chillicothe, MO

4:43 AM CST on December 14, 2019 (GMT -0600)
Chillicothe

Weather History for KCDJ - October, 2019

Change the Weather History Date:

Sunday, October 27, 2019

  Actual Average (WUND) Record (WUND)
Temperature  
Mean Temperature 48 °F -  
Max Temperature 59 °F - - (-1)
Min Temperature 36 °F - - (-1)
Degree Days  
Heating Degree Days 18    
Moisture  
Dew Point 39 °F    
Average Humidity 78    
Maximum Humidity 100    
Minimum Humidity 53    
Precipitation  
Precipitation 0.01 in - - ()
Sea Level Pressure  
Sea Level Pressure 29.96 in    
Wind  
Wind Speed 2 mph (North)    
Max Wind Speed 7 mph    
Max Gust Speed -    
Averages and records for this station are not official NWS values.
T = Trace of Precipitation, MM = Missing Value Source: NWS Daily Summary

Daily Weather History Graph

Daily Weather History Graph

Search for Another Location

Airport or City:

Astronomy

Oct. 27, 2019 Rise Set
Actual Time 7:37 AM CDT 6:18 PM CDT
Civil Twilight 7:09 AM CDT 6:46 PM CDT
Nautical Twilight 6:37 AM CDT 7:17 PM CDT
Astronomical Twilight 6:06 AM CDT 7:49 PM CDT
Moon 6:46 AM CDT (10/27) 6:28 PM CDT (10/27)
Length of Visible Light 11h 36m
Length of Day
10h 41m
Waning Crescent, 0% of the Moon is Illuminated
Oct 27
Waning Crescent
Oct 27
New
Nov 4
First Quarter
Nov 12
Full
Nov 19
Last Quarter

Hourly Weather History & Observations

Time (CDT) Temp. Windchill Dew Point Humidity Pressure Visibility Wind Dir Wind Speed Gust Speed Precip Events Conditions
12:52 AM 37.0 °F - 36.0 °F 96% 29.81 in - Calm Calm - N/A   Unknown
1:52 AM 37.0 °F - 36.0 °F 96% 29.82 in - Calm Calm - N/A   Unknown
2:52 AM 36.0 °F - 35.1 °F 97% 29.83 in - Calm Calm - N/A   Unknown
3:52 AM 37.0 °F - 36.0 °F 96% 29.84 in - Calm Calm - N/A   Unknown
4:52 AM 37.9 °F - 37.0 °F 97% 29.84 in - Calm Calm - N/A   Unknown
5:52 AM 37.0 °F - 36.0 °F 96% 29.87 in - Calm Calm - N/A   Unknown
6:52 AM 37.0 °F - 37.0 °F 100% 29.90 in - Calm Calm - 0.01 in   Unknown
8:52 AM 44.1 °F 42.5 °F 39.9 °F 85% 29.96 in - Variable 3.5 mph - N/A   Unknown
9:52 AM 46.0 °F 42.5 °F 39.9 °F 79% 29.99 in - NW 6.9 mph - N/A   Unknown
10:52 AM 48.9 °F - 39.9 °F 71% 30.00 in - Variable 3.5 mph - N/A   Unknown
11:52 AM 52.0 °F - 41.0 °F 66% 30.01 in - North - - N/A   Unknown
12:52 PM 55.0 °F - 42.1 °F 62% 30.00 in - Variable 5.8 mph - N/A   Unknown
1:52 PM 57.0 °F - 42.1 °F 57% 29.98 in - Calm Calm - N/A   Unknown
3:52 PM 59.0 °F - 43.0 °F 55% 29.98 in - North 6.9 mph - N/A   Unknown
4:52 PM 59.0 °F - 42.1 °F 53% 29.99 in - NNE 5.8 mph - N/A   Unknown
5:52 PM 54.0 °F - 42.1 °F 64% 30.00 in - Calm Calm - N/A   Unknown
6:52 PM 52.0 °F - 41.0 °F 66% 30.02 in - Variable 5.8 mph - N/A   Unknown
8:52 PM 46.9 °F - 39.9 °F 77% 30.05 in - Variable 5.8 mph - N/A   Unknown
9:52 PM 46.9 °F - 39.9 °F 77% 30.06 in - Variable 4.6 mph - N/A   Unknown
10:52 PM 46.9 °F - 39.0 °F 74% 30.08 in - Variable 3.5 mph - N/A   Unknown
11:52 PM 46.9 °F - 37.9 °F 71% 30.10 in - NNW 4.6 mph - N/A   Unknown